Orbital Elements at Epoch 2459200.5 (2020-Dec-17.0) TDB
Reference: JPL 25 (heliocentric ecliptic J2000)
Element | Value | Uncertainty (1-sigma) | Units |
e | .1425022102627759 | 3.5424e-08 | |
a | 2.278924082072304 | 6.3949e-09 | au |
q | 1.954172363355933 | 8.1122e-08 | au |
i | 2.090212544345487 | 4.9875e-06 | deg |
node | 204.8658030649061 | 7.8905e-05 | deg |
peri | 33.60556139945485 | 8.0595e-05 | deg |
M | 138.3355464197246 | 1.7705e-05 | deg |
tp | 2458717.636361482556 (2019-Aug-22.13636148) | 6.1085e-05 | TDB |
period | 1256.588883806181 3.44 | 5.2892e-06 1.448e-08 | d yr |
n | .2864898811690644 | 1.2059e-09 | deg/d |
Q | 2.603675800788675 | 7.3062e-09 | au |
|
| | Orbit Determination Parameters
Additional Information
|